Regional Weather Roundup
Issued by NWS Charleston, SC

Home | Current Version | Previous Version | Text Only | Print | Product List | Glossary On
Versions: 1 2 3 4 5 6 7 8 9 10 11 12 13 14 15 16 17 18 19 20 21 22 23 24 25 26 27 28 29 30 31 32 33 34 35 36 37 38 39 40 41 42 43 44 45 46 47 48 49 50
000
ASUS42 KCHS 202210
RWRCHS
REGIONAL WEATHER ROUNDUP
NATIONAL WEATHER SERVICE CHARLESTON SC
500 PM EST SAT DEC 20 2014

NOTE: "FAIR" INDICATES FEW OR NO CLOUDS BELOW 12,000 FEET WITH NO
SIGNIFICANT WEATHER AND/OR OBSTRUCTIONS TO VISIBILITY.

NOT ALL STATIONS ARE QUALITY CONTROLLED BY THE NATIONAL
WEATHER SERVICE. USE DATA WITH CAUTION...ESPECIALLY
DEWPOINT OBSERVATIONS.

SCZ027-030-031-034>040-042>050-202300-
...SOUTHEAST SOUTH CAROLINA...

CITY           SKY/WX    TMP DP  RH WIND       PRES   REMARKS
N CHARLESTON   CLOUDY    52  50  93 NE10      30.18R
WATERFRONT PRK   N/A     52 N/A N/A NE12        N/A
MOUNT PLEASANT CLOUDY    52  52 100 NE6       30.18R
PINOPOLIS        N/A     52  48  87 NE10      30.08S
MONCKS CORNER    N/A     50  48  93 NE6       30.18S
SUMMERVILLE    CLOUDY    50  50 100 N8        30.19R
BEAUFORT MCAS  CLOUDY    55  51  86 N7        30.16R
BEAUFORT ARPT  CLOUDY    54  52  94 NE7       30.15R
HILTON HEAD IS CLOUDY    55  52  88 N6        30.16R
WALTERBORO     CLOUDY    54 N/A N/A N3        30.17R
ALLENDALE      CLOUDY    52  52 100 VRB3      30.17R

...SOUTHERN MIDLANDS AND PEE DEE...

CITY           SKY/WX    TMP DP  RH WIND       PRES   REMARKS
GEORGETOWN     NOT AVBL
KINGSTREE      NOT AVBL
ORANGEBURG     CLOUDY    48  45  89 NE7       30.19R FOG
BARNWELL       CLOUDY    50  48  93 NE7       30.18S
AIKEN          CLOUDY    48  48 100 NE6       30.21R FOG
MANNING        NOT AVBL
COLUMBIA       CLOUDY    49  44  83 E5        30.20R
SUMTER         CLOUDY    46  42  83 NE8       30.19S
FLORENCE       CLOUDY    46  39  76 NE8       30.22R
MYRTLE BEACH   CLOUDY    46  43  87 NE12      30.22R
N MYRTLE BEACH CLOUDY    46  43  89 NE7       30.21R

$$

GAZ063-065-086>088-099>101-113>116-118-119-134>141-150-202300-
...SOUTHEAST GEORGIA...

CITY           SKY/WX    TMP DP  RH WIND       PRES   REMARKS
SAVANNAH ARPT  CLOUDY    55  51  86 NE5       30.16R
HUNTER AAF     CLOUDY    56  53  90 NE5       30.13S
FORT STEWART   CLOUDY    56  51  84 NE5       30.13R
STATESBORO     CLOUDY    54  53  96 E3        30.15S
SYLVANIA       CLOUDY    53  52  97 NE3       30.17R
CLAXTON        CLOUDY    55  52  88 NE6       30.14S

...CSRA...CENTRAL AND FAR SOUTHEAST GEORGIA...

CITY           SKY/WX    TMP DP  RH WIND       PRES   REMARKS
THOMSON        CLOUDY    51  51 100 N3        30.22R
AUGUSTA-BUSH   CLOUDY    52  49  89 NE9       30.18R FOG
AUGUSTA-DANIEL CLOUDY    51  50  96 N7        30.18R FOG
SWAINSBORO     CLOUDY    55  55 100 NE3       30.15S
VIDALIA        MOCLDY    55  52  88 N3        30.14S
EASTMAN        CLOUDY    57  55  91 CALM      30.16R
HAZLEHURST     CLOUDY    58  55  88 CALM      30.12R
ALMA           CLOUDY    57  51  80 NE3       30.12R
WAYCROSS       CLOUDY    61  55  79 NE3       30.11F
JESUP          CLOUDY    61  54  77 NE3       30.13S
BAXLEY         CLOUDY    59  52  77 CALM      30.12S
BRUNSWICK      CLOUDY    57  52  82 NE5       30.14R
SAINT SIMONS   CLOUDY    57  53  86 NE13      30.13R

$$

SCZ027-028-034-036>038-045-046-048>050-GAZ119-141-202300-
...LAKE AND SUPPLEMENTAL COASTAL OBSERVATIONS...

STATION/POSITION TIME  TEMP    WIND        PRES    WAVE   SWELL
                       AIR SEA DIR/SP/G            HT/PER HT/PER/DIR
                 (UTC) (F)     (DEG/KT/KT) (MB)    (FT/S) (FT/S/D)
UPR LAKE MARION  NOT AVBL
WINYAH BAY       2100   49      40/ 10     1021.0S
LAKE MURRAY      2100   48      30/  3/  6 1022.0R
ACE BASIN NERRS  2100   54      20/  3     1020.0S
FORT PULASKI     2200   55 56   30/  5/  8 1021.3R
SAPELO ISLAND    2100   57      30/  7     1020.0S

$$

ANZ835-935-AMZ111-154-330-350-352-354-370-450-454-472-202300-
...C-MAN AND BUOY OBSERVATIONS...

STATION/POSITION TIME  TEMP    WIND        PRES    WAVE   SWELL
                       AIR SEA DIR/SP/G            HT/PER HT/PER/DIR
                 (UTC) (F)     (DEG/KT/KT) (MB)    (FT/S) (FT/S/D)
BUOY 41004       2200   61 70   30/ 17/ 23 1019.9R   5/ 6   2/10
BUOY 41008       2200   58 58   40/ 14/ 17 1019.6R   3/ 5   2/110/10
FOLLY BEACH CMAN 2100   53      40/ 16/ 18 1021.6R
CAPERS NEARSHORE 2100   53      50/ 17/ 19   N/A
FRIPP NEARSHORE  NOT AVBL


STATION/POSITION TIME  TEMP    WIND        PRES    WAVE   SWELL
                       AIR SEA DIR/SP/G            HT/PER HT/PER/DIR
                 (UTC) (F)     (DEG/KT/KT) (MB)    (FT/S) (FT/S/D)
5E ST. MARYS GA  2200      61                N/A     4/ 5
FRYING PAN BUOY  2200   54 68   40/ 19/ 21 1022.2F   4/ 5
BUOY 41025       2200   47                 1023.8F   3/ 4
CAPE LOOKOUT NC  2100   43      20/ 13/ 15 1023.7R
BUOY 41002       2131   65 71   90/ 12/ 16 1020.2R   3/ 7   2/ 30/ 7
BUOY 41010       2200   73 77  270/  4/  6 1018.8R   2/11   2/ 90/11
ST AUGUSTINE FL  2200   61     360/ 18/ 19 1019.4R


$$



USA.gov is the U.S. government's official web portal to all federal, state and local government web resources and services.